| time (UTC) | temp F | wind direction | speed knots | gust knots | rain 1hr in | rain 24hr in | rain mn in | humidity % | barometer mb |
| 20260505140553 | 59 | 0 | 0.9 | 1.7 | 0.00 | 0.05 | 0.05 | 73 | 1011.9 |
| 20260505125007 | 59 | 120 | 0.0 | 0.0 | 0.00 | 0.05 | 0.05 | 73 | 1011.7 |
| 20260505124503 | 59 | 120 | 0.0 | 0.0 | 0.00 | 0.05 | 0.05 | 73 | 1011.5 |
| 20260505124000 | 59 | 264 | 2.6 | 2.6 | 0.00 | 0.05 | 0.05 | 73 | 1011.6 |
| 20260505123456 | 59 | 283 | 0.9 | 1.7 | 0.00 | 0.05 | 0.05 | 73 | 1011.5 |
| 20260505122952 | 59 | 162 | 0.9 | 0.9 | 0.00 | 0.05 | 0.05 | 73 | 1011.1 |
| 20260505122450 | 59 | 196 | 2.6 | 2.6 | 0.00 | 0.05 | 0.05 | 72 | 1011.1 |
| 20260505121946 | 59 | 180 | 0.0 | 0.9 | 0.00 | 0.05 | 0.05 | 72 | 1010.8 |
| 20260505121443 | 59 | 60 | 0.9 | 3.5 | 0.02 | 0.05 | 0.05 | 73 | 1010.8 |
| 20260505120939 | 59 | 156 | 2.6 | 2.6 | 0.02 | 0.05 | 0.05 | 73 | 1010.7 |
| 20260505120436 | 59 | 203 | 0.0 | 2.6 | 0.00 | 0.05 | 0.05 | 73 | 1010.7 |
| 20260505115935 | 59 | 157 | 2.6 | 5.2 | 0.00 | 0.05 | 0.05 | 72 | 1011.1 |
| 20260505115432 | 59 | 184 | 5.2 | 7.0 | 0.00 | 0.05 | 0.05 | 73 | 1010.8 |
| 20260505114930 | 59 | 176 | 1.7 | 7.0 | 0.00 | 0.05 | 0.05 | 72 | 1010.6 |
| 20260505114425 | 59 | 199 | 5.2 | 6.1 | 0.00 | 0.05 | 0.05 | 72 | 1010.6 |
| 20260505113922 | 59 | 150 | 5.2 | 6.1 | 0.00 | 0.05 | 0.05 | 72 | 1010.7 |
| 20260505113419 | 58 | 199 | 3.5 | 7.8 | 0.00 | 0.05 | 0.05 | 73 | 1010.4 |
| 20260505112914 | 59 | 149 | 2.6 | 6.1 | 0.00 | 0.05 | 0.05 | 72 | 1010.3 |
| 20260505112413 | 59 | 170 | 5.2 | 8.7 | 0.00 | 0.05 | 0.05 | 72 | 1010.3 |
| 20260505111908 | 59 | 195 | 7.8 | 7.8 | 0.00 | 0.05 | 0.05 | 72 | 1010.3 |
| 20260505111403 | 59 | 135 | 5.2 | 7.0 | 0.00 | 0.05 | 0.05 | 73 | 1010.3 |
| 20260505110859 | 59 | 132 | 6.1 | 6.1 | 0.00 | 0.05 | 0.05 | 73 | 1010.7 |
| 20260505110351 | 59 | 217 | 2.6 | 3.5 | 0.02 | 0.05 | 0.05 | 73 | 1011.0 |
| 20260505101821 | 60 | 198 | 3.5 | 3.5 | 0.05 | 0.01 | 0.01 | 73 | 1011.5 |
| 20260505101316 | 60 | 198 | 3.5 | 3.5 | 0.00 | 0.00 | 0.00 | 73 | 1011.5 |
| 20260505100812 | 60 | 198 | 3.5 | 3.5 | 0.00 | 0.00 | 0.00 | 73 | 1011.5 |
| 20260505100309 | 60 | 198 | 3.5 | 3.5 | 0.00 | 0.00 | 0.00 | 73 | 1011.1 |
| 20260505095805 | 60 | 198 | 3.5 | 3.5 | 0.00 | 0.00 | 0.00 | 73 | 1011.2 |
| 20260505095304 | 60 | 198 | 3.5 | 3.5 | 0.00 | 0.00 | 0.00 | 73 | 1011.3 |
| 20260505094758 | 60 | 156 | 1.7 | 2.6 | 0.00 | 0.00 | 0.00 | 73 | 1011.5 |
| 20260505094255 | 61 | 194 | 1.7 | 2.6 | 0.00 | 0.00 | 0.00 | 73 | 1011.2 |
| 20260505093751 | 61 | 194 | 1.7 | 2.6 | 0.00 | 0.00 | 0.00 | 73 | 1011.3 |
| 20260505093249 | 61 | 180 | 0.0 | 0.9 | 0.00 | 0.00 | 0.00 | 73 | 1011.2 |
| 20260505092746 | 61 | 192 | 0.9 | 1.7 | 0.00 | 0.00 | 0.00 | 73 | 1011.3 |
| 20260505092244 | 61 | 135 | 2.6 | 2.6 | 0.00 | 0.00 | 0.00 | 73 | 1011.0 |
| 20260505091741 | 61 | 135 | 2.6 | 2.6 | 0.00 | 0.00 | 0.00 | 73 | 1010.7 |
| 20260505091239 | 61 | 123 | 3.5 | 3.5 | 0.00 | 0.00 | 0.00 | 73 | 1010.5 |
| 20260505090736 | 61 | 127 | 2.6 | 2.6 | 0.00 | 0.00 | 0.00 | 73 | 1010.7 |
| 20260505090234 | 62 | 144 | 2.6 | 3.5 | 0.00 | 0.00 | 0.00 | 73 | 1010.7 |
| 20260505085731 | 62 | 144 | 2.6 | 3.5 | 0.00 | 0.00 | 0.00 | 73 | 1010.7 |
| 20260505085230 | 62 | 144 | 2.6 | 3.5 | 0.00 | 0.00 | 0.00 | 73 | 1010.8 |
| 20260505084727 | 62 | 144 | 2.6 | 3.5 | 0.00 | 0.00 | 0.00 | 73 | 1010.7 |
| 20260505084226 | 62 | 144 | 2.6 | 3.5 | 0.00 | 0.00 | 0.00 | 73 | 1010.5 |
| 20260505083722 | 62 | 144 | 2.6 | 3.5 | 0.00 | 0.00 | 0.00 | 73 | 1010.7 |
| 20260505083219 | 62 | 147 | 1.7 | 2.6 | 0.00 | 0.00 | 0.00 | 73 | 1010.7 |
| 20260505082715 | 62 | 147 | 1.7 | 2.6 | 0.00 | 0.00 | 0.00 | 73 | 1010.3 |
| 20260505082213 | 62 | 155 | 2.6 | 2.6 | 0.00 | 0.00 | 0.00 | 73 | 1010.6 |
| 20260505081708 | 62 | 174 | 0.9 | 1.7 | 0.00 | 0.00 | 0.00 | 73 | 1010.3 |
| 20260505081206 | 63 | 212 | 1.7 | 3.5 | 0.00 | 0.00 | 0.00 | 73 | 1010.5 |
| 20260505080703 | 63 | 212 | 1.7 | 3.5 | 0.00 | 0.00 | 0.00 | 73 | 1010.5 |
| 20260505080158 | 63 | 212 | 1.7 | 3.5 | 0.00 | 0.00 | 0.00 | 73 | 1010.7 |
| 20260505075654 | 63 | 212 | 1.7 | 3.5 | 0.00 | 0.00 | 0.00 | 73 | 1010.8 |
| 20260505075151 | 63 | 212 | 1.7 | 3.5 | 0.00 | 0.00 | 0.00 | 73 | 1010.6 |
| 20260505074648 | 63 | 212 | 1.7 | 3.5 | 0.00 | 0.00 | 0.00 | 73 | 1010.6 |
| 20260505074145 | 63 | 212 | 1.7 | 3.5 | 0.00 | 0.00 | 0.00 | 73 | 1010.7 |
| 20260505073643 | 63 | 202 | 3.5 | 5.2 | 0.00 | 0.00 | 0.00 | 73 | 1010.7 |
| 20260505073141 | 63 | 202 | 3.5 | 5.2 | 0.00 | 0.00 | 0.00 | 73 | 1010.8 |
| 20260505072636 | 63 | 202 | 3.5 | 5.2 | 0.00 | 0.00 | 0.00 | 73 | 1010.9 |
| 20260505072133 | 63 | 205 | 6.1 | 6.1 | 0.00 | 0.00 | 0.00 | 73 | 1010.7 |
| 20260505071629 | 63 | 209 | 5.2 | 8.7 | 0.00 | 0.00 | 0.00 | 73 | 1010.9 |
| 20260505071127 | 63 | 203 | 6.1 | 6.1 | 0.00 | 0.00 | 0.00 | 73 | 1010.8 |
| 20260505070624 | 63 | 206 | 7.0 | 10.4 | 0.00 | 0.00 | 0.00 | 73 | 1010.8 |
| 20260505070120 | 63 | 214 | 2.6 | 6.1 | 0.00 | 0.00 | 0.00 | 73 | 1010.9 |
| 20260505065616 | 63 | 214 | 2.6 | 6.1 | 0.00 | 0.00 | 0.00 | 73 | 1010.8 |
| 20260505065112 | 63 | 214 | 2.6 | 6.1 | 0.00 | 0.00 | 0.00 | 73 | 1010.9 |
| 20260505064609 | 63 | 214 | 2.6 | 6.1 | 0.00 | 0.00 | 0.00 | 73 | 1010.9 |
| 20260505064108 | 63 | 176 | 3.5 | 6.1 | 0.00 | 0.00 | 0.00 | 73 | 1011.1 |
| 20260505063605 | 63 | 190 | 2.6 | 2.6 | 0.00 | 0.00 | 0.00 | 73 | 1011.0 |
| 20260505063101 | 62 | 198 | 4.3 | 6.1 | 0.00 | 0.00 | 0.00 | 73 | 1011.1 |
| 20260505062557 | 62 | 154 | 2.6 | 2.6 | 0.00 | 0.00 | 0.00 | 73 | 1010.8 |
| 20260505062055 | 63 | 144 | 1.7 | 7.0 | 0.00 | 0.00 | 0.00 | 73 | 1011.0 |
| 20260505061552 | 63 | 144 | 1.7 | 7.0 | 0.00 | 0.00 | 0.00 | 73 | 1011.1 |
| 20260505061050 | 63 | 144 | 1.7 | 7.0 | 0.00 | 0.00 | 0.00 | 73 | 1011.3 |
| 20260505060547 | 63 | 189 | 3.5 | 3.5 | 0.00 | 0.00 | 0.00 | 73 | 1011.4 |
| 20260505060044 | 63 | 189 | 3.5 | 3.5 | 0.00 | 0.00 | 0.00 | 73 | 1011.6 |
| 20260505055539 | 63 | 189 | 3.5 | 3.5 | 0.00 | 0.00 | 0.00 | 73 | 1012.0 |
| 20260505055036 | 63 | 189 | 3.5 | 3.5 | 0.00 | 0.00 | 0.00 | 73 | 1011.9 |
| 20260505054533 | 63 | 189 | 3.5 | 3.5 | 0.00 | 0.00 | 0.00 | 73 | 1011.9 |
| 20260505054032 | 63 | 189 | 3.5 | 3.5 | 0.00 | 0.00 | 0.00 | 73 | 1012.0 |
| 20260505053528 | 63 | 184 | 3.5 | 6.1 | 0.00 | 0.00 | 0.00 | 73 | 1011.7 |
| 20260505053025 | 63 | 184 | 3.5 | 6.1 | 0.00 | 0.00 | 0.00 | 73 | 1011.8 |
| 20260505052522 | 63 | 160 | 2.6 | 3.5 | 0.00 | 0.00 | 0.00 | 73 | 1011.8 |
| 20260505052019 | 64 | 185 | 4.3 | 7.0 | 0.00 | 0.00 | 0.00 | 73 | 1011.6 |
| 20260505051516 | 65 | 181 | 4.3 | 7.0 | 0.00 | 0.00 | 0.00 | 73 | 1012.1 |
| 20260505051014 | 65 | 181 | 4.3 | 7.0 | 0.00 | 0.00 | 0.00 | 73 | 1012.0 |
| 20260505050512 | 65 | 199 | 7.8 | 7.8 | 0.00 | 0.00 | 0.00 | 73 | 1012.2 |
| 20260505041439 | 66 | 195 | 3.5 | 6.1 | 0.00 | 0.00 | 0.00 | 73 | 1012.4 |
| 20260505040937 | 66 | 211 | 2.6 | 7.8 | 0.00 | 0.00 | 0.00 | 73 | 1012.3 |
| 20260505040434 | 66 | 234 | 4.3 | 4.3 | 0.00 | 0.00 | 0.00 | 73 | 1012.3 |
| 20260505035931 | 66 | 234 | 4.3 | 4.3 | 0.00 | 0.00 | 0.00 | 73 | 1012.6 |
| 20260505035427 | 67 | 221 | 5.2 | 7.8 | 0.00 | 0.00 | 0.00 | 73 | 1012.5 |
| 20260505034924 | 67 | 221 | 5.2 | 7.8 | 0.00 | 0.00 | 0.00 | 73 | 1012.7 |
| 20260505034421 | 67 | 213 | 4.3 | 7.0 | 0.00 | 0.00 | 0.00 | 73 | 1012.6 |
| 20260505033918 | 67 | 191 | 2.6 | 7.0 | 0.00 | 0.00 | 0.00 | 73 | 1012.7 |
| 20260505033414 | 67 | 205 | 5.2 | 7.0 | 0.00 | 0.00 | 0.00 | 73 | 1012.6 |
| 20260505032913 | 67 | 197 | 5.2 | 9.6 | 0.00 | 0.00 | 0.00 | 73 | 1012.8 |
| 20260505032409 | 68 | 209 | 4.3 | 4.3 | 0.00 | 0.00 | 0.00 | 73 | 1012.7 |
| 20260505031906 | 68 | 203 | 9.6 | 10.4 | 0.00 | 0.00 | 0.00 | 73 | 1012.6 |
| 20260505031403 | 68 | 192 | 5.2 | 12.2 | 0.00 | 0.00 | 0.00 | 73 | 1012.6 |
| 20260505030900 | 68 | 186 | 3.5 | 11.3 | 0.00 | 0.00 | 0.00 | 74 | 1012.7 |
| 20260505030356 | 68 | 194 | 3.5 | 6.1 | 0.00 | 0.00 | 0.00 | 73 | 1012.6 |
| 20260505025851 | 68 | 180 | 2.6 | 11.3 | 0.00 | 0.00 | 0.00 | 73 | 1012.4 |
| 20260505025349 | 68 | 219 | 10.4 | 11.3 | 0.00 | 0.00 | 0.00 | 74 | 1012.2 |
| 20260505024848 | 68 | 202 | 6.1 | 10.4 | 0.00 | 0.00 | 0.00 | 73 | 1012.3 |
| 20260505024345 | 68 | 202 | 8.7 | 12.2 | 0.00 | 0.00 | 0.00 | 74 | 1012.2 |
| 20260505023842 | 68 | 203 | 7.8 | 10.4 | 0.00 | 0.00 | 0.00 | 74 | 1012.2 |
| 20260505023339 | 69 | 194 | 6.1 | 13.0 | 0.00 | 0.00 | 0.00 | 74 | 1012.0 |
| 20260505022836 | 68 | 214 | 7.0 | 8.7 | 0.00 | 0.00 | 0.00 | 74 | 1012.1 |
| 20260505022333 | 69 | 203 | 6.1 | 8.7 | 0.00 | 0.00 | 0.00 | 74 | 1012.0 |
| 20260505021830 | 69 | 206 | 7.0 | 7.8 | 0.00 | 0.00 | 0.00 | 74 | 1011.9 |
| 20260505021327 | 69 | 198 | 5.2 | 7.0 | 0.00 | 0.00 | 0.00 | 74 | 1012.0 |
| 20260505020822 | 69 | 203 | 5.2 | 6.1 | 0.00 | 0.00 | 0.00 | 74 | 1011.7 |
| 20260505020318 | 69 | 205 | 5.2 | 10.4 | 0.00 | 0.00 | 0.00 | 74 | 1011.9 |
| 20260505015815 | 70 | 204 | 8.7 | 8.7 | 0.00 | 0.00 | 0.00 | 74 | 1011.5 |
| 20260505015313 | 70 | 208 | 5.2 | 7.8 | 0.00 | 0.00 | 0.00 | 74 | 1011.4 |
| 20260505014810 | 70 | 210 | 6.1 | 9.6 | 0.00 | 0.00 | 0.00 | 74 | 1011.3 |
| 20260505014307 | 70 | 200 | 4.3 | 6.1 | 0.00 | 0.00 | 0.00 | 74 | 1011.5 |
| 20260505013803 | 70 | 212 | 4.3 | 7.8 | 0.00 | 0.00 | 0.00 | 74 | 1011.3 |
| 20260505013300 | 70 | 198 | 3.5 | 5.2 | 0.00 | 0.00 | 0.00 | 74 | 1011.3 |
| 20260505012759 | 71 | 204 | 6.1 | 8.7 | 0.00 | 0.00 | 0.00 | 74 | 1011.4 |
| 20260505012256 | 71 | 203 | 7.8 | 11.3 | 0.00 | 0.00 | 0.00 | 74 | 1011.2 |
| 20260505011752 | 71 | 200 | 5.2 | 7.0 | 0.00 | 0.00 | 0.00 | 74 | 1011.2 |
| 20260505011249 | 71 | 207 | 7.8 | 10.4 | 0.00 | 0.00 | 0.00 | 74 | 1011.2 |
| 20260505010744 | 71 | 203 | 4.3 | 7.8 | 0.00 | 0.00 | 0.00 | 74 | 1011.2 |
| 20260505010241 | 72 | 212 | 5.2 | 7.8 | 0.00 | 0.00 | 0.00 | 74 | 1011.0 |
| 20260505005737 | 72 | 218 | 4.3 | 9.6 | 0.00 | 0.00 | 0.00 | 74 | 1011.1 |
| 20260505005234 | 72 | 209 | 8.7 | 11.3 | 0.00 | 0.00 | 0.00 | 74 | 1010.9 |
| 20260505004731 | 72 | 159 | 2.6 | 11.3 | 0.00 | 0.00 | 0.00 | 74 | 1011.1 |
| 20260505004228 | 73 | 202 | 9.6 | 11.3 | 0.00 | 0.00 | 0.00 | 74 | 1010.9 |
| 20260505003725 | 73 | 225 | 7.8 | 10.4 | 0.00 | 0.00 | 0.00 | 74 | 1011.1 |
| 20260505003223 | 74 | 204 | 3.5 | 12.2 | 0.00 | 0.00 | 0.00 | 74 | 1010.8 |
| 20260505002719 | 74 | 243 | 1.7 | 10.4 | 0.00 | 0.00 | 0.00 | 74 | 1011.2 |
| 20260505002217 | 74 | 205 | 5.2 | 12.2 | 0.00 | 0.00 | 0.00 | 74 | 1010.9 |
| 20260505001714 | 75 | 212 | 7.0 | 11.3 | 0.00 | 0.00 | 0.00 | 74 | 1010.8 |
| 20260505001211 | 75 | 218 | 11.3 | 11.3 | 0.00 | 0.00 | 0.00 | 74 | 1010.8 |
| 20260505000708 | 76 | 206 | 9.6 | 10.4 | 0.00 | 0.00 | 0.00 | 74 | 1010.8 |
| 20260505000206 | 75 | 206 | 7.8 | 13.0 | 0.00 | 0.00 | 0.00 | 74 | 1010.7 |
| 20260504235702 | 76 | 223 | 6.1 | 16.5 | 0.00 | 0.00 | 0.00 | 74 | 1010.7 |
| 20260504235158 | 76 | 203 | 9.6 | 9.6 | 0.00 | 0.00 | 0.00 | 75 | 1010.8 |
| 20260504234656 | 76 | 207 | 12.2 | 18.2 | 0.00 | 0.00 | 0.00 | 74 | 1010.8 |
| 20260504234153 | 76 | 207 | 9.6 | 13.9 | 0.00 | 0.00 | 0.00 | 75 | 1010.8 |
| 20260504233649 | 76 | 204 | 10.4 | 13.9 | 0.00 | 0.00 | 0.00 | 75 | 1011.0 |
| 20260504233145 | 76 | 204 | 7.0 | 15.6 | 0.00 | 0.00 | 0.00 | 75 | 1010.8 |
| 20260504232643 | 77 | 200 | 4.3 | 7.8 | 0.00 | 0.00 | 0.00 | 75 | 1010.8 |
| 20260504232139 | 78 | 222 | 7.8 | 18.2 | 0.00 | 0.00 | 0.00 | 75 | 1010.9 |
| 20260504231636 | 77 | 207 | 10.4 | 19.1 | 0.00 | 0.00 | 0.00 | 75 | 1011.1 |
| 20260504231132 | 78 | 231 | 16.5 | 16.5 | 0.00 | 0.00 | 0.00 | 75 | 1010.9 |
| 20260504230629 | 78 | 218 | 6.1 | 13.9 | 0.00 | 0.00 | 0.00 | 75 | 1011.0 |
| 20260504230128 | 78 | 206 | 8.7 | 12.2 | 0.00 | 0.00 | 0.00 | 75 | 1010.8 |
| 20260504225626 | 78 | 205 | 5.2 | 13.9 | 0.00 | 0.00 | 0.00 | 75 | 1010.9 |
| 20260504225121 | 78 | 264 | 4.3 | 16.5 | 0.00 | 0.00 | 0.00 | 75 | 1011.1 |
| 20260504224618 | 78 | 204 | 9.6 | 13.9 | 0.00 | 0.00 | 0.00 | 75 | 1010.9 |
| 20260504224115 | 78 | 229 | 5.2 | 18.2 | 0.00 | 0.00 | 0.00 | 75 | 1011.0 |
| 20260504223612 | 78 | 208 | 10.4 | 17.4 | 0.00 | 0.00 | 0.00 | 75 | 1010.9 |
| 20260504223108 | 79 | 212 | 5.2 | 12.2 | 0.00 | 0.00 | 0.00 | 75 | 1011.0 |
| 20260504222605 | 78 | 264 | 4.3 | 14.8 | 0.00 | 0.00 | 0.00 | 75 | 1010.9 |
| 20260504222102 | 78 | 256 | 4.3 | 15.6 | 0.00 | 0.00 | 0.00 | 75 | 1011.1 |
| 20260504221559 | 78 | 191 | 5.2 | 18.2 | 0.00 | 0.00 | 0.00 | 75 | 1011.2 |
| 20260504221056 | 78 | 197 | 7.8 | 17.4 | 0.00 | 0.00 | 0.00 | 75 | 1011.1 |
| 20260504220552 | 78 | 253 | 6.1 | 15.6 | 0.00 | 0.00 | 0.00 | 75 | 1011.1 |
| 20260504220049 | 78 | 205 | 10.4 | 13.0 | 0.00 | 0.00 | 0.00 | 75 | 1011.0 |
| 20260504215546 | 78 | 217 | 14.8 | 19.1 | 0.00 | 0.00 | 0.00 | 75 | 1011.3 |
| 20260504215044 | 79 | 211 | 3.5 | 13.0 | 0.00 | 0.00 | 0.00 | 75 | 1011.3 |
| 20260504214539 | 78 | 213 | 13.9 | 16.5 | 0.00 | 0.00 | 0.00 | 75 | 1011.3 |
| 20260504214036 | 78 | 208 | 12.2 | 20.9 | 0.00 | 0.00 | 0.00 | 75 | 1011.4 |
| 20260504213532 | 78 | 214 | 7.8 | 17.4 | 0.00 | 0.00 | 0.00 | 75 | 1011.1 |
| 20260504213030 | 78 | 212 | 10.4 | 18.2 | 0.00 | 0.00 | 0.00 | 75 | 1011.2 |
| 20260504212525 | 79 | 253 | 11.3 | 18.2 | 0.00 | 0.00 | 0.00 | 75 | 1011.4 |
| 20260504212023 | 79 | 210 | 3.5 | 18.2 | 0.00 | 0.00 | 0.00 | 75 | 1011.6 |
| 20260504211520 | 79 | 246 | 11.3 | 15.6 | 0.00 | 0.00 | 0.00 | 75 | 1011.4 |
| 20260504211017 | 79 | 103 | 3.5 | 19.1 | 0.00 | 0.00 | 0.00 | 75 | 1011.6 |
| 20260504210514 | 78 | 222 | 6.1 | 19.1 | 0.00 | 0.00 | 0.00 | 75 | 1011.6 |
| 20260504210010 | 79 | 240 | 4.3 | 14.8 | 0.00 | 0.00 | 0.00 | 75 | 1011.7 |
| 20260504205508 | 78 | 213 | 7.8 | 20.9 | 0.00 | 0.00 | 0.00 | 75 | 1011.6 |
| 20260504205006 | 79 | 264 | 7.8 | 15.6 | 0.00 | 0.00 | 0.00 | 75 | 1011.7 |
| 20260504204504 | 78 | 200 | 7.8 | 22.6 | 0.00 | 0.00 | 0.00 | 75 | 1011.8 |
| 20260504204003 | 79 | 236 | 4.3 | 18.2 | 0.00 | 0.00 | 0.00 | 75 | 1011.8 |
| 20260504203500 | 79 | 249 | 7.8 | 16.5 | 0.00 | 0.00 | 0.00 | 75 | 1011.8 |
| 20260504202956 | 80 | 256 | 13.9 | 17.4 | 0.00 | 0.00 | 0.00 | 75 | 1012.1 |
| 20260504202453 | 80 | 225 | 3.5 | 13.9 | 0.00 | 0.00 | 0.00 | 75 | 1012.0 |
| 20260504201950 | 79 | 216 | 1.7 | 13.0 | 0.00 | 0.00 | 0.00 | 75 | 1012.0 |
| 20260504201447 | 78 | 230 | 22.6 | 23.5 | 0.00 | 0.00 | 0.00 | 75 | 1012.0 |
| 20260504200944 | 78 | 209 | 15.6 | 19.1 | 0.00 | 0.00 | 0.00 | 75 | 1012.2 |
| 20260504200441 | 79 | 247 | 14.8 | 20.0 | 0.00 | 0.00 | 0.00 | 75 | 1012.2 |
| 20260504195938 | 79 | 206 | 4.3 | 18.2 | 0.00 | 0.00 | 0.00 | 75 | 1012.3 |
| 20260504195433 | 79 | 215 | 26.9 | 26.9 | 0.00 | 0.00 | 0.00 | 75 | 1012.4 |
| 20260504194930 | 78 | 223 | 17.4 | 19.1 | 0.00 | 0.00 | 0.00 | 75 | 1012.4 |
| 20260504194426 | 78 | 261 | 9.6 | 19.1 | 0.00 | 0.00 | 0.00 | 75 | 1012.4 |
| 20260504193922 | 78 | 221 | 1.7 | 17.4 | 0.00 | 0.00 | 0.00 | 75 | 1012.3 |
| 20260504193420 | 78 | 199 | 7.8 | 27.8 | 0.00 | 0.00 | 0.00 | 75 | 1012.5 |
| 20260504192918 | 78 | 221 | 13.0 | 18.2 | 0.00 | 0.00 | 0.00 | 75 | 1012.5 |
| 20260504192415 | 77 | 210 | 13.0 | 21.7 | 0.00 | 0.00 | 0.00 | 75 | 1012.6 |
| 20260504191914 | 78 | 210 | 12.2 | 22.6 | 0.00 | 0.00 | 0.00 | 75 | 1012.7 |
| 20260504191412 | 78 | 198 | 16.5 | 16.5 | 0.00 | 0.00 | 0.00 | 75 | 1012.7 |
| 20260504190907 | 78 | 243 | 7.8 | 14.8 | 0.00 | 0.00 | 0.00 | 75 | 1012.6 |
| 20260504190403 | 77 | 209 | 13.9 | 19.1 | 0.00 | 0.00 | 0.00 | 75 | 1012.7 |
| 20260504185900 | 77 | 222 | 19.1 | 21.7 | 0.00 | 0.00 | 0.00 | 75 | 1012.8 |
| 20260504185357 | 78 | 202 | 5.2 | 16.5 | 0.00 | 0.00 | 0.00 | 75 | 1012.6 |
| 20260504184853 | 78 | 75 | 2.6 | 21.7 | 0.00 | 0.00 | 0.00 | 75 | 1013.2 |
| 20260504184349 | 77 | 211 | 2.6 | 19.1 | 0.00 | 0.00 | 0.00 | 75 | 1012.8 |
| 20260504183845 | 78 | 210 | 5.2 | 13.0 | 0.00 | 0.00 | 0.00 | 75 | 1013.2 |
| 20260504183342 | 77 | 217 | 13.9 | 17.4 | 0.00 | 0.00 | 0.00 | 75 | 1012.8 |
| 20260504182840 | 76 | 255 | 7.8 | 19.1 | 0.00 | 0.00 | 0.00 | 75 | 1013.1 |
| 20260504182337 | 77 | 250 | 8.7 | 23.5 | 0.00 | 0.00 | 0.00 | 75 | 1013.1 |
| 20260504181834 | 76 | 208 | 12.2 | 25.2 | 0.00 | 0.00 | 0.00 | 74 | 1013.0 |
| 20260504181331 | 76 | 188 | 2.6 | 21.7 | 0.00 | 0.00 | 0.00 | 74 | 1012.8 |
| 20260504180830 | 76 | 202 | 5.2 | 19.1 | 0.00 | 0.00 | 0.00 | 74 | 1013.1 |
| 20260504180328 | 76 | 232 | 17.4 | 20.0 | 0.00 | 0.00 | 0.00 | 74 | 1013.4 |
| 20260504175826 | 76 | 219 | 8.7 | 17.4 | 0.00 | 0.00 | 0.00 | 75 | 1013.1 |
| 20260504175322 | 76 | 184 | 1.7 | 17.4 | 0.00 | 0.00 | 0.00 | 75 | 1013.3 |
| 20260504174821 | 75 | 205 | 10.4 | 21.7 | 0.00 | 0.00 | 0.00 | 74 | 1013.5 |
| 20260504174318 | 75 | 225 | 7.0 | 24.3 | 0.00 | 0.00 | 0.00 | 74 | 1013.2 |
| 20260504173814 | 75 | 195 | 7.8 | 16.5 | 0.00 | 0.00 | 0.00 | 74 | 1013.4 |
| 20260504173311 | 75 | 232 | 3.5 | 20.9 | 0.00 | 0.00 | 0.00 | 74 | 1013.6 |
| 20260504172808 | 75 | 196 | 4.3 | 17.4 | 0.00 | 0.00 | 0.00 | 74 | 1013.5 |
| 20260504172305 | 75 | 254 | 8.7 | 17.4 | 0.00 | 0.00 | 0.00 | 74 | 1013.4 |
| 20260504171800 | 75 | 213 | 7.8 | 15.6 | 0.00 | 0.00 | 0.00 | 74 | 1013.7 |
| 20260504171258 | 75 | 245 | 14.8 | 19.1 | 0.00 | 0.00 | 0.00 | 74 | 1013.5 |
| 20260504170755 | 75 | 200 | 2.6 | 23.5 | 0.00 | 0.00 | 0.00 | 74 | 1013.6 |
| 20260504170252 | 75 | 190 | 6.1 | 20.9 | 0.00 | 0.00 | 0.00 | 74 | 1013.8 |
| 20260504160210 | 73 | 241 | 3.5 | 20.0 | 0.00 | 0.00 | 0.00 | 74 | 1014.2 |
| 20260504151138 | 70 | 196 | 4.3 | 24.3 | 0.00 | 0.00 | 0.00 | 74 | 1014.7 |
| 20260504150636 | 70 | 227 | 15.6 | 20.0 | 0.00 | 0.00 | 0.00 | 74 | 1014.7 |
| 20260504150132 | 70 | 226 | 13.9 | 17.4 | 0.00 | 0.00 | 0.00 | 74 | 1014.8 |